Time,TemperatureF,DewpointF,PressureIn,WindDirection,WindDirectionDegrees,WindSpeedMPH,WindSpeedGustMPH,Humidity,HourlyPrecipIn,Conditions,Clouds,dailyrainin,SoftwareType,DateUTC
2013-03-15 00:08:00,35.6,28.5,29.75,ESE,112,0.0,-999.0,75,-99.99,,,0.00,Acu-Link.com,2013-03-15 07:08:00,
2013-03-15 00:23:00,35.6,29.4,29.76,ESE,112,0.0,-999.0,78,-99.99,,,0.00,Acu-Link.com,2013-03-15 07:23:00,
2013-03-15 00:39:00,33.8,28.0,29.76,ESE,112,0.0,-999.0,79,-99.99,,,0.00,Acu-Link.com,2013-03-15 07:39:00,
2013-03-15 00:54:00,33.8,28.3,29.77,East,90,0.0,-999.0,80,-99.99,,,0.00,Acu-Link.com,2013-03-15 07:54:00,
2013-03-15 01:09:00,33.8,28.9,29.77,East,90,0.0,-999.0,82,-99.99,,,0.00,Acu-Link.com,2013-03-15 08:09:00,
2013-03-15 01:24:00,32.0,27.1,29.77,East,90,0.0,-999.0,82,-99.99,,,0.00,Acu-Link.com,2013-03-15 08:24:00,
2013-03-15 01:39:00,32.0,27.4,29.79,East,90,0.0,-999.0,83,-99.99,,,0.00,Acu-Link.com,2013-03-15 08:39:00,
2013-03-15 01:54:00,32.0,27.7,29.79,East,90,0.0,-999.0,84,-99.99,,,0.00,Acu-Link.com,2013-03-15 08:54:00,
2013-03-15 02:09:00,32.0,28.0,29.80,NW,315,0.0,-999.0,85,-99.99,,,0.00,Acu-Link.com,2013-03-15 09:09:00,
2013-03-15 02:25:00,32.0,28.3,29.80,ESE,112,0.0,-999.0,86,-99.99,,,0.00,Acu-Link.com,2013-03-15 09:25:00,
2013-03-15 02:40:00,32.0,28.3,29.82,NNE,22,0.0,-999.0,86,-99.99,,,0.00,Acu-Link.com,2013-03-15 09:40:00,
2013-03-15 02:55:00,30.2,26.5,29.83,ESE,112,0.0,-999.0,86,-99.99,,,0.00,Acu-Link.com,2013-03-15 09:55:00,
2013-03-15 03:10:00,30.2,27.1,29.83,NE,45,0.0,-999.0,88,-99.99,,,0.00,Acu-Link.com,2013-03-15 10:10:00,
2013-03-15 03:25:00,30.2,26.8,29.84,SSW,202,0.0,-999.0,87,-99.99,,,0.00,Acu-Link.com,2013-03-15 10:25:00,
2013-03-15 03:56:00,30.2,27.4,29.85,ENE,67,0.0,-999.0,89,-99.99,,,0.00,Acu-Link.com,2013-03-15 10:56:00,
2013-03-15 04:11:00,30.2,27.4,29.85,ENE,67,0.0,-999.0,89,-99.99,,,0.00,Acu-Link.com,2013-03-15 11:11:00,
2013-03-15 04:26:00,28.4,25.6,29.86,ENE,67,0.0,-999.0,89,-99.99,,,0.00,Acu-Link.com,2013-03-15 11:26:00,
2013-03-15 04:42:00,28.4,25.8,29.86,ENE,67,0.0,-999.0,90,-99.99,,,0.00,Acu-Link.com,2013-03-15 11:42:00,
2013-03-15 04:57:00,28.4,25.8,29.86,ENE,67,0.0,-999.0,90,-99.99,,,0.00,Acu-Link.com,2013-03-15 11:57:00,
2013-03-15 05:12:00,28.4,25.8,29.87,ENE,67,0.0,-999.0,90,-99.99,,,0.00,Acu-Link.com,2013-03-15 12:12:00,
2013-03-15 05:27:00,28.4,25.8,29.87,ENE,67,0.0,-999.0,90,-99.99,,,0.00,Acu-Link.com,2013-03-15 12:27:00,
2013-03-15 05:42:00,28.4,25.8,29.88,ENE,67,0.0,-999.0,90,-99.99,,,0.00,Acu-Link.com,2013-03-15 12:42:00,
2013-03-15 05:57:00,28.4,25.8,29.88,ENE,67,0.0,-999.0,90,-99.99,,,0.00,Acu-Link.com,2013-03-15 12:57:00,
2013-03-15 06:12:00,28.4,25.8,29.88,ENE,67,0.0,-999.0,90,-99.99,,,0.00,Acu-Link.com,2013-03-15 13:12:00,
2013-03-15 06:27:00,28.4,25.8,29.88,ENE,67,0.0,-999.0,90,-99.99,,,0.00,Acu-Link.com,2013-03-15 13:27:00,
2013-03-15 06:42:00,28.4,25.8,29.88,East,90,0.0,-999.0,90,-99.99,,,0.00,Acu-Link.com,2013-03-15 13:42:00,
2013-03-15 06:58:00,28.4,25.8,29.88,ENE,67,0.0,-999.0,90,-99.99,,,0.00,Acu-Link.com,2013-03-15 13:58:00,
2013-03-15 07:13:00,28.4,25.8,29.88,East,90,0.0,-999.0,90,-99.99,,,0.00,Acu-Link.com,2013-03-15 14:13:00,
2013-03-15 07:28:00,28.4,25.8,29.88,SW,225,0.0,-999.0,90,-99.99,,,0.00,Acu-Link.com,2013-03-15 14:28:00,
2013-03-15 07:43:00,28.4,25.8,29.88,ESE,112,0.0,-999.0,90,-99.99,,,0.00,Acu-Link.com,2013-03-15 14:43:00,
2013-03-15 07:58:00,28.4,25.6,29.88,ESE,112,0.0,-999.0,89,-99.99,,,0.00,Acu-Link.com,2013-03-15 14:58:00,
2013-03-15 08:13:00,28.4,25.6,29.88,East,90,0.0,-999.0,89,-99.99,,,0.00,Acu-Link.com,2013-03-15 15:13:00,
2013-03-15 08:28:00,30.2,27.6,29.89,South,180,0.0,-999.0,90,-99.99,,,0.00,Acu-Link.com,2013-03-15 15:28:00,
2013-03-15 08:43:00,30.2,27.1,29.89,South,180,0.0,-999.0,88,-99.99,,,0.00,Acu-Link.com,2013-03-15 15:43:00,
2013-03-15 08:58:00,32.0,28.0,29.89,WNW,292,0.0,-999.0,85,-99.99,,,0.00,Acu-Link.com,2013-03-15 15:58:00,
2013-03-15 09:14:00,32.0,28.3,29.89,East,90,0.0,-999.0,86,-99.99,,,0.00,Acu-Link.com,2013-03-15 16:14:00,
2013-03-15 09:29:00,33.8,28.6,29.90,SSE,157,0.0,-999.0,81,-99.99,,,0.00,Acu-Link.com,2013-03-15 16:29:00,
2013-03-15 09:44:00,35.6,30.1,29.90,SSW,202,0.0,-999.0,80,-99.99,,,0.00,Acu-Link.com,2013-03-15 16:44:00,
2013-03-15 09:59:00,35.6,28.8,29.90,SW,225,0.0,-999.0,76,-99.99,,,0.00,Acu-Link.com,2013-03-15 16:59:00,
2013-03-15 10:14:00,39.2,32.3,29.90,SSW,202,0.0,-999.0,76,-99.99,,,0.00,Acu-Link.com,2013-03-15 17:14:00,
2013-03-15 10:29:00,42.8,32.2,29.91,WSW,247,1.6,-999.0,66,-99.99,,,0.00,Acu-Link.com,2013-03-15 17:29:00,
2013-03-15 10:44:00,42.8,32.2,29.91,SSE,157,0.0,-999.0,66,-99.99,,,0.00,Acu-Link.com,2013-03-15 17:44:00,
2013-03-15 10:59:00,42.8,31.1,29.90,SSE,157,0.0,-999.0,63,-99.99,,,0.00,Acu-Link.com,2013-03-15 17:59:00,
2013-03-15 11:14:00,44.6,30.3,29.90,SSW,202,0.0,-999.0,57,-99.99,,,0.00,Acu-Link.com,2013-03-15 18:14:00,
2013-03-15 11:29:00,46.4,31.6,29.90,ENE,67,0.0,-999.0,56,-99.99,,,0.00,Acu-Link.com,2013-03-15 18:29:00,
2013-03-15 11:45:00,46.4,30.2,29.90,SSE,157,2.7,-999.0,53,-99.99,,,0.00,Acu-Link.com,2013-03-15 18:45:00,
2013-03-15 12:00:00,46.4,29.3,29.90,SW,225,0.0,-999.0,51,-99.99,,,0.00,Acu-Link.com,2013-03-15 19:00:00,
2013-03-15 12:15:00,48.2,29.9,29.90,ENE,67,1.1,-999.0,49,-99.99,,,0.00,Acu-Link.com,2013-03-15 19:15:00,
2013-03-15 12:30:00,48.2,28.9,29.90,West,270,1.1,-999.0,47,-99.99,,,0.00,Acu-Link.com,2013-03-15 19:30:00,
2013-03-15 12:45:00,48.2,29.4,29.90,ENE,67,1.1,-999.0,48,-99.99,,,0.00,Acu-Link.com,2013-03-15 19:45:00,
2013-03-15 13:16:00,48.2,28.9,29.89,SSE,157,0.0,-999.0,47,-99.99,,,0.00,Acu-Link.com,2013-03-15 20:16:00,
2013-03-15 13:31:00,48.2,27.9,29.89,West,270,0.0,-999.0,45,-99.99,,,0.00,Acu-Link.com,2013-03-15 20:31:00,
2013-03-15 13:46:00,50.0,28.4,29.89,West,270,2.7,-999.0,43,-99.99,,,0.00,Acu-Link.com,2013-03-15 20:46:00,
2013-03-15 14:17:00,50.0,26.6,29.88,SW,225,2.0,-999.0,40,-99.99,,,0.00,Acu-Link.com,2013-03-15 21:17:00,
2013-03-15 14:32:00,50.0,27.2,29.88,South,180,1.6,-999.0,41,-99.99,,,0.00,Acu-Link.com,2013-03-15 21:32:00,
2013-03-15 14:47:00,50.0,28.4,29.88,SE,135,2.0,-999.0,43,-99.99,,,0.00,Acu-Link.com,2013-03-15 21:47:00,
2013-03-15 15:02:00,50.0,26.0,29.87,WNW,292,1.6,-999.0,39,-99.99,,,0.00,Acu-Link.com,2013-03-15 22:02:00,
2013-03-15 15:17:00,50.0,25.4,29.87,ENE,67,2.7,-999.0,38,-99.99,,,0.00,Acu-Link.com,2013-03-15 22:17:00,
2013-03-15 15:32:00,50.0,25.4,29.86,ESE,112,0.0,-999.0,38,-99.99,,,0.00,Acu-Link.com,2013-03-15 22:32:00,
2013-03-15 15:48:00,50.0,25.4,29.86,SW,225,1.1,-999.0,38,-99.99,,,0.00,Acu-Link.com,2013-03-15 22:48:00,
2013-03-15 16:03:00,50.0,27.2,29.85,ESE,112,0.0,-999.0,41,-99.99,,,0.00,Acu-Link.com,2013-03-15 23:03:00,
2013-03-15 16:18:00,50.0,25.4,29.86,SSE,157,0.0,-999.0,38,-99.99,,,0.00,Acu-Link.com,2013-03-15 23:18:00,
2013-03-15 16:33:00,50.0,27.8,29.86,SW,225,0.0,-999.0,42,-99.99,,,0.00,Acu-Link.com,2013-03-15 23:33:00,
2013-03-15 16:48:00,48.2,26.8,29.86,ENE,67,0.0,-999.0,43,-99.99,,,0.00,Acu-Link.com,2013-03-15 23:48:00,
2013-03-15 17:03:00,46.4,25.1,29.86,West,270,0.0,-999.0,43,-99.99,,,0.00,Acu-Link.com,2013-03-16 00:03:00,
2013-03-15 17:18:00,46.4,28.8,29.85,WSW,247,0.0,-999.0,50,-99.99,,,0.00,Acu-Link.com,2013-03-16 00:18:00,
2013-03-15 17:33:00,44.6,27.6,29.86,WSW,247,2.7,-999.0,51,-99.99,,,0.00,Acu-Link.com,2013-03-16 00:33:00,
2013-03-15 17:48:00,44.6,27.6,29.86,WSW,247,0.0,-999.0,51,-99.99,,,0.00,Acu-Link.com,2013-03-16 00:48:00,
2013-03-15 18:04:00,44.6,29.0,29.86,North,0,3.6,-999.0,54,-99.99,,,0.00,Acu-Link.com,2013-03-16 01:04:00,
2013-03-15 18:19:00,44.6,29.0,29.85,East,90,0.0,-999.0,54,-99.99,,,0.00,Acu-Link.com,2013-03-16 01:19:00,
2013-03-15 18:34:00,42.8,27.8,29.86,SSE,157,0.0,-999.0,55,-99.99,,,0.00,Acu-Link.com,2013-03-16 01:34:00,
2013-03-15 18:49:00,42.8,30.3,29.86,SSW,202,1.6,-999.0,61,-99.99,,,0.00,Acu-Link.com,2013-03-16 01:49:00,
2013-03-15 19:05:00,42.8,30.7,29.85,SSE,157,1.1,-999.0,62,-99.99,,,0.00,Acu-Link.com,2013-03-16 02:05:00,
2013-03-15 19:20:00,41.0,29.4,29.85,ENE,67,0.0,-999.0,63,-99.99,,,0.00,Acu-Link.com,2013-03-16 02:20:00,
2013-03-15 19:35:00,41.0,30.9,29.85,East,90,0.0,-999.0,67,-99.99,,,0.00,Acu-Link.com,2013-03-16 02:35:00,
2013-03-15 19:50:00,41.0,30.9,29.85,SSE,157,0.0,-999.0,67,-99.99,,,0.00,Acu-Link.com,2013-03-16 02:50:00,
2013-03-15 20:05:00,39.2,29.2,29.85,East,90,0.0,-999.0,67,-99.99,,,0.00,Acu-Link.com,2013-03-16 03:05:00,
2013-03-15 20:20:00,39.2,29.2,29.85,ESE,112,0.0,-999.0,67,-99.99,,,0.00,Acu-Link.com,2013-03-16 03:20:00,
2013-03-15 20:35:00,37.4,27.8,29.85,NW,315,0.0,-999.0,68,-99.99,,,0.00,Acu-Link.com,2013-03-16 03:35:00,
2013-03-15 20:50:00,37.4,27.8,29.84,NE,45,0.0,-999.0,68,-99.99,,,0.00,Acu-Link.com,2013-03-16 03:50:00,
2013-03-15 21:05:00,35.6,26.8,29.84,NNE,22,0.0,-999.0,70,-99.99,,,0.00,Acu-Link.com,2013-03-16 04:05:00,
2013-03-15 21:21:00,35.6,27.5,29.84,ENE,67,0.0,-999.0,72,-99.99,,,0.00,Acu-Link.com,2013-03-16 04:21:00,
2013-03-15 21:51:00,35.6,29.1,29.83,East,90,0.0,-999.0,77,-99.99,,,0.00,Acu-Link.com,2013-03-16 04:51:00,
2013-03-15 22:06:00,33.8,27.4,29.83,WNW,292,0.0,-999.0,77,-99.99,,,0.00,Acu-Link.com,2013-03-16 05:06:00,
2013-03-15 22:21:00,33.8,27.7,29.83,NW,315,0.0,-999.0,78,-99.99,,,0.00,Acu-Link.com,2013-03-16 05:21:00,
2013-03-15 22:37:00,33.8,27.7,29.83,NNE,22,0.0,-999.0,78,-99.99,,,0.00,Acu-Link.com,2013-03-16 05:37:00,
2013-03-15 22:52:00,33.8,27.7,29.82,NE,45,0.0,-999.0,78,-99.99,,,0.00,Acu-Link.com,2013-03-16 05:52:00,
2013-03-15 23:07:00,32.0,26.2,29.82,NE,45,0.0,-999.0,79,-99.99,,,0.00,Acu-Link.com,2013-03-16 06:07:00,
2013-03-15 23:22:00,32.0,26.2,29.81,East,90,0.0,-999.0,79,-99.99,,,0.00,Acu-Link.com,2013-03-16 06:22:00,
2013-03-15 23:37:00,32.0,26.5,29.81,ENE,67,0.0,-999.0,80,-99.99,,,0.00,Acu-Link.com,2013-03-16 06:37:00,
2013-03-15 23:52:00,32.0,26.8,29.81,West,270,0.0,-999.0,81,-99.99,,,0.00,Acu-Link.com,2013-03-16 06:52:00,